Weather reports worldwide

Advertisment
Bluefield, wv, United States of America (2072067): temperature & dewpoint: 15.02.2019 20:00:00 - 21.02.2019 20:00:00 (EST)Bluefield, wv, United States of America (2072067): wind speed & gusts: 15.02.2019 20:00:00 - 21.02.2019 20:00:00 (EST)Bluefield, wv, United States of America (2072067): wind direction: 15.02.2019 20:00:00 - 21.02.2019 20:00:00 (EST)Bluefield, wv, United States of America (2072067): reduced air pressure: 15.02.2019 20:00:00 - 21.02.2019 20:00:00 (EST)Bluefield, wv, United States of America (2072067): visibility: 15.02.2019 20:00:00 - 21.02.2019 20:00:00 (EST)Bluefield, wv, United States of America (2072067): precipitation: 15.02.2019 20:00:00 - 21.02.2019 20:00:00 (EST)
Date & Time tt [°C] td [°C] ff [km/h] ff [kn] fx [km/h] fx [kn] dd ppp [hPa] vv [km] rr [mm]
21.02.2019 20:00:00 6,1 4,4 5 3 - - W 1022,1 16 -
21.02.2019 19:00:00 6,7 4,4 9 5 - - W 1021,5 16 -
21.02.2019 18:00:00 6,7 3,9 9 5 - - W 1020,8 16 -
21.02.2019 17:00:00 7,2 3,9 15 8 - - W 1020,7 16 -
21.02.2019 16:00:00 7,8 3,9 11 6 - - W 1019,9 16 -
21.02.2019 15:00:00 7,2 4,4 13 7 - - W 1019,8 10 -
21.02.2019 14:00:00 6,7 4,4 13 7 - - W 1019,9 16 -
21.02.2019 13:00:00 5,6 3,9 15 8 - - NW 1020,5 16 -
21.02.2019 12:00:00 6,1 5,6 11 6 - - WNW 1020,5 13 -
21.02.2019 11:00:00 6,7 6,1 13 7 - - WNW 1020,3 6 -
21.02.2019 10:00:00 7,8 7,2 8 4 - - WNW 1020,1 8 0,3
21.02.2019 09:00:00 8,3 7,8 11 6 - - WNW 1020,0 4,0 0,0
21.02.2019 08:00:00 8,9 8,9 8 4 - - W 1018,8 0,8 -
21.02.2019 07:00:00 9,4 8,9 5 3 - - WNW 1017,3 8 0,3
21.02.2019 06:00:00 10,0 9,4 11 6 - - WSW 1016,5 2,0 0,0
21.02.2019 05:00:00 10,0 9,4 13 7 - - WSW 1016,1 0,8 0,3
21.02.2019 04:00:00 10,0 10,0 16 9 - - W 1015,9 4,0 0,0
21.02.2019 03:00:00 10,6 10,0 13 7 - - WSW 1015,9 4,8 0,3
21.02.2019 02:00:00 10,6 10,6 21 11 - - WSW 1015,9 6 0,0
21.02.2019 01:00:00 11,1 9,4 13 7 - - W 1015,1 16 -
21.02.2019 00:00:00 11,7 8,9 16 9 - - SW 1014,7 16 -
20.02.2019 23:00:00 10,6 8,3 11 6 - - SW 1015,0 16 -
20.02.2019 22:00:00 8,9 6,7 11 6 - - SSW 1015,5 16 0,5
20.02.2019 21:00:00 3,9 3,3 0 0 - - N 1016,4 10 0,8
20.02.2019 20:00:00 3,3 2,2 5 3 - - ENE 1016,8 16 -
20.02.2019 19:00:00 4,4 2,8 9 5 48 26 SSE 1016,8 16 0,0
20.02.2019 18:00:00 3,9 2,8 22 12 - - S 1017,7 16 0,0
20.02.2019 17:00:00 2,8 2,2 15 8 - - SE 1020,5 1,2 1,8
20.02.2019 16:00:00 2,8 1,1 9 5 - - - 1020,4 8 2,8
20.02.2019 15:00:00 3,9 1,7 15 8 - - SSE 1020,3 16 4,6
20.02.2019 14:00:00 2,8 1,1 8 4 - - - 1020,7 4,0 1,0
20.02.2019 13:00:00 2,8 1,1 16 9 50 27 SE 1022,2 8 0,0
20.02.2019 12:00:00 2,2 0,0 18 10 - - S 1023,4 16 -
20.02.2019 11:00:00 1,7 0,0 22 12 61 33 S 1024,1 16 0,0
20.02.2019 10:00:00 1,7 0,0 31 17 61 33 SSE 1021,8 16 -
20.02.2019 09:00:00 1,7 -1,1 13 7 52 28 E 1022,0 16 -
20.02.2019 08:00:00 0,6 -2,2 15 8 61 33 SW 1022,4 16 -
20.02.2019 07:00:00 -0,6 -2,8 - - - - - 1022,8 16 -
20.02.2019 06:00:00 -0,6 -2,8 8 4 52 28 - 1022,8 13 0,0
20.02.2019 05:00:00 -0,6 -2,2 - - 48 26 - 1022,0 16 -
20.02.2019 04:00:00 -1,1 -2,8 15 8 - - E 1023,6 16 0,0
20.02.2019 03:00:00 -1,1 -2,8 21 11 - - ESE 1025,1 10 0,0
20.02.2019 02:00:00 -1,7 -2,8 24 13 - - E 1027,2 11 0,3
20.02.2019 01:00:00 -1,1 -2,2 11 6 - - - 1028,2 4,8 2,8
20.02.2019 00:00:00 -1,7 -3,3 18 10 - - ESE 1029,7 3,2 0,3
19.02.2019 23:00:00 -1,7 -2,8 13 7 - - E 1031,5 1,6 0,5
19.02.2019 22:00:00 -1,1 -3,3 24 13 - - SSE 1031,6 2,8 0,0
19.02.2019 21:00:00 1,1 -5,6 21 11 - - ESE 1030,2 16 -
19.02.2019 20:00:00 1,7 -6,1 13 7 - - ESE 1031,1 16 -
19.02.2019 19:00:00 1,7 -6,7 5 3 - - - 1032,3 16 -
19.02.2019 18:00:00 1,7 -6,1 5 3 - - E 1031,6 16 -
19.02.2019 17:00:00 2,2 -5,6 9 5 - - - 1031,5 16 -
19.02.2019 16:00:00 2,8 -6,1 5 3 - - - 1032,2 16 -
19.02.2019 15:00:00 2,8 -6,7 8 4 - - E 1031,9 16 -
19.02.2019 14:00:00 2,2 -6,1 8 4 - - - 1032,0 16 -
19.02.2019 13:00:00 1,7 -6,7 - - - - - 1033,4 16 -
19.02.2019 12:00:00 0,0 -6,7 5 3 - - - 1034,4 16 -
19.02.2019 11:00:00 -1,7 -7,2 8 4 - - E 1034,8 16 -
19.02.2019 10:00:00 -2,8 -7,8 8 4 - - NNE 1035,8 16 -
19.02.2019 09:00:00 -3,9 -8,3 0 0 - - N 1035,5 16 -
19.02.2019 08:00:00 -4,4 -8,3 0 0 - - N 1034,6 16 -
19.02.2019 07:00:00 -4,4 -8,3 0 0 - - N 1033,9 16 -
19.02.2019 06:00:00 -4,4 -8,9 5 3 - - NW 1033,0 16 -
19.02.2019 05:00:00 -4,4 -8,3 13 7 - - WNW 1032,6 10 -
19.02.2019 04:00:00 -4,4 -8,3 9 5 - - WNW 1032,1 16 -
19.02.2019 03:00:00 -3,9 -7,8 8 4 - - - 1032,0 16 -
19.02.2019 02:00:00 -3,9 -7,8 5 3 - - NNW 1031,5 16 -
19.02.2019 01:00:00 -3,9 -7,2 16 9 - - WNW 1030,9 10 -
19.02.2019 00:00:00 -3,9 -7,8 21 11 - - NW 1030,5 16 -
18.02.2019 23:00:00 -3,3 -7,8 16 9 - - WNW 1030,1 16 -
18.02.2019 22:00:00 -3,3 -7,8 16 9 - - NW 1029,7 16 -
18.02.2019 21:00:00 -3,3 -7,8 15 8 50 27 WNW 1029,0 16 -
18.02.2019 20:00:00 -2,8 -6,7 21 11 - - WNW 1028,0 16 -
18.02.2019 19:00:00 -2,2 -5,6 26 14 - - WNW 1026,7 16 -
18.02.2019 18:00:00 -2,2 -4,4 18 10 - - NNW 1025,4 16 -
18.02.2019 17:00:00 -1,1 -4,4 24 13 - - NW 1024,1 16 -
18.02.2019 16:00:00 -0,6 -3,9 28 15 - - WNW 1022,9 16 -
18.02.2019 15:00:00 -1,1 -3,3 22 12 - - WNW 1021,5 16 -
18.02.2019 14:00:00 -1,1 -2,8 22 12 - - WNW 1020,8 16 -
18.02.2019 13:00:00 -1,1 -2,2 16 9 - - NW 1020,4 15 -
18.02.2019 12:00:00 -0,6 -1,7 15 8 - - WNW 1019,7 16 -
18.02.2019 11:00:00 1,1 -2,8 22 12 48 26 W 1018,4 16 -
18.02.2019 10:00:00 1,1 -1,7 29 16 - - WNW 1017,2 16 -
18.02.2019 09:00:00 1,1 -1,7 22 12 - - WNW 1016,4 16 0,0
18.02.2019 08:00:00 1,1 -0,6 22 12 - - WNW 1015,6 16 -
18.02.2019 07:00:00 1,7 0,0 22 12 - - WNW 1014,4 16 0,0
18.02.2019 06:00:00 1,7 1,1 22 12 - - WNW 1013,0 2,0 0,0
18.02.2019 05:00:00 2,8 2,2 26 14 - - W 1012,2 8 0,3
18.02.2019 04:00:00 3,9 3,3 18 10 - - WNW 1010,4 8 0,3
18.02.2019 03:00:00 7,8 6,1 21 11 52 28 W 1009,5 16 0,3
18.02.2019 02:00:00 7,8 6,1 18 10 - - WSW 1009,1 16 0,8
18.02.2019 01:00:00 7,8 6,7 15 8 - - WSW 1010,1 16 0,3
18.02.2019 00:00:00 8,3 6,7 24 13 - - W 1010,8 16 1,5
17.02.2019 23:00:00 8,3 7,2 18 10 - - W 1010,6 15 2,3
17.02.2019 22:00:00 7,2 6,7 9 5 - - SW 1010,4 8 0,5
17.02.2019 21:00:00 6,7 6,7 5 3 - - W 1010,6 10 0,5
17.02.2019 20:00:00 3,9 3,3 0 0 - - N 1010,1 6 2,3
17.02.2019 19:00:00 3,3 2,8 5 3 - - N 1010,0 13 0,0
17.02.2019 18:00:00 3,3 2,2 0 0 - - N 1009,2 16 -
17.02.2019 17:00:00 2,8 1,7 11 6 - - SSE 1009,4 16 0,3
17.02.2019 16:00:00 3,3 2,2 9 5 - - SE 1009,9 16 5,3
17.02.2019 15:00:00 2,2 1,1 16 9 - - SSE 1011,4 2,0 3,3
17.02.2019 14:00:00 2,8 1,1 18 10 - - SSE 1011,4 10 0,0
17.02.2019 13:00:00 3,3 1,7 9 5 - - - 1012,6 16 0,3
17.02.2019 12:00:00 1,1 0,0 11 6 - - ESE 1014,2 13 1,0
17.02.2019 11:00:00 0,0 -1,7 11 6 - - - 1015,9 8 1,3
17.02.2019 10:00:00 0,0 -2,8 13 7 - - SE 1015,1 13 2,0
17.02.2019 09:00:00 0,6 -2,8 13 7 - - SSE 1015,3 8 1,0
17.02.2019 08:00:00 0,0 -5,6 16 9 - - SSE 1013,6 16 -
17.02.2019 07:00:00 0,0 -5,0 11 6 - - SSE 1012,7 16 -
17.02.2019 06:00:00 0,6 -4,4 18 10 - - SSE 1013,6 16 -
17.02.2019 05:00:00 0,6 -3,9 18 10 - - SSE 1012,7 16 -
17.02.2019 04:00:00 1,1 -4,4 13 7 - - SE 1013,0 16 -
17.02.2019 03:00:00 1,1 -3,3 13 7 - - SE 1012,5 16 -
17.02.2019 02:00:00 0,6 -3,9 9 5 - - ENE 1013,0 16 -
17.02.2019 01:00:00 0,6 -4,4 8 4 - - E 1013,3 16 -
17.02.2019 00:00:00 0,0 -4,4 9 5 - - ENE 1013,2 16 -
16.02.2019 23:00:00 -1,1 -3,3 5 3 - - E 1013,5 16 -
16.02.2019 22:00:00 -1,1 -3,3 0 0 - - N 1014,3 16 -
16.02.2019 21:00:00 0,0 -3,3 0 0 - - N 1013,9 16 -
16.02.2019 20:00:00 0,0 -3,3 8 4 - - W 1013,8 16 -
16.02.2019 19:00:00 1,1 -3,9 0 0 - - N 1012,9 16 -
16.02.2019 18:00:00 1,7 -3,9 5 3 - - NW 1012,4 16 -
16.02.2019 17:00:00 2,2 -3,3 9 5 - - NW 1011,7 16 -
16.02.2019 16:00:00 3,3 -1,7 8 4 - - - 1011,2 16 -
16.02.2019 15:00:00 2,8 -2,2 8 4 - - NNE 1011,0 16 -
16.02.2019 14:00:00 1,7 -4,4 0 0 - - N 1011,3 16 -
16.02.2019 13:00:00 1,7 -3,3 5 3 - - NNE 1011,4 16 -
16.02.2019 12:00:00 -0,6 -3,3 9 5 - - NE 1012,4 16 -
16.02.2019 11:00:00 -1,1 -3,3 11 6 - - NE 1012,1 15 0,0
16.02.2019 10:00:00 -1,7 -3,3 9 5 - - NNE 1011,9 13 0,0
16.02.2019 09:00:00 -1,7 -2,8 13 7 - - NNE 1011,5 1,2 0,0
16.02.2019 08:00:00 -0,6 -1,7 9 5 - - NNE 1010,4 6 0,0
16.02.2019 07:00:00 -0,6 -1,7 9 5 - - NNE 1010,1 6 0,8
16.02.2019 06:00:00 -0,6 -1,1 13 7 - - N 1009,1 2,4 0,0
16.02.2019 05:00:00 0,0 -0,6 8 4 - - - 1008,2 16 0,0
16.02.2019 04:00:00 0,6 0,0 8 4 - - NE 1008,2 16 -
16.02.2019 03:00:00 0,6 0,0 0 0 - - N 1008,9 16 -
16.02.2019 02:00:00 0,6 0,0 5 3 - - N 1009,5 16 0,0
16.02.2019 01:00:00 1,1 0,6 0 0 - - N 1010,1 13 0,3
16.02.2019 00:00:00 1,1 0,0 9 5 - - WNW 1010,1 16 0,0
15.02.2019 23:00:00 2,2 1,1 5 3 - - - 1010,5 16 0,3
15.02.2019 22:00:00 2,8 1,7 9 5 - - W 1010,6 15 0,0
15.02.2019 21:00:00 4,4 2,2 15 8 - - WNW 1010,3 8 0,3
15.02.2019 20:00:00 5,6 3,9 9 5 - - WNW 1010,2 16 0,0

tt = temperature
td = dewpoint
ff = wind speed
fx = gusts
dd = wind direction
ppp = reduced air pressure
vv = visibility
rr = precipitation

Next stations